Time,TemperatureF,DewpointF,PressureIn,WindDirection,WindDirectionDegrees,WindSpeedMPH,WindSpeedGustMPH,Humidity,HourlyPrecipIn,Conditions,Clouds,dailyrainin,SoftwareType,DateUTC
2013-02-16 00:22:00,-999.0,-99.9,-100.00,WNW,303,1.0,-999.0,-999,-99.99,,,-99.99,,2013-02-16 08:22:00,
2013-02-16 01:02:00,47.0,-99.9,-100.00,North,-999,-999.0,-999.0,-999,-99.99,,,-99.99,,2013-02-16 09:02:00,
2013-02-16 01:11:00,-999.0,-99.9,-100.00,WNW,303,3.0,-999.0,-999,-99.99,,,-99.99,,2013-02-16 09:11:00,
2013-02-16 01:22:00,-999.0,-99.9,-100.00,WNW,303,3.0,-999.0,-999,-99.99,,,-99.99,,2013-02-16 09:22:00,
2013-02-16 01:32:00,-999.0,-99.9,-100.00,WNW,303,3.0,-999.0,-999,-99.99,,,-99.99,,2013-02-16 09:32:00,
2013-02-16 01:42:00,47.0,18.0,-100.00,North,-999,-999.0,-999.0,30,-99.99,,,0.00,,2013-02-16 09:42:00,
2013-02-16 01:51:00,47.0,18.0,-100.00,North,-999,-999.0,-999.0,30,-99.99,,,0.00,,2013-02-16 09:51:00,
2013-02-16 02:01:00,-999.0,-99.9,-100.00,West,275,3.0,-999.0,-999,-99.99,,,-99.99,,2013-02-16 10:01:00,
2013-02-16 02:11:00,-999.0,-99.9,-100.00,West,275,3.0,-999.0,-999,-99.99,,,-99.99,,2013-02-16 10:11:00,
2013-02-16 02:22:00,-999.0,-99.9,-100.00,West,275,3.0,-999.0,-999,-99.99,,,-99.99,,2013-02-16 10:22:00,
2013-02-16 02:42:00,-999.0,-99.9,-100.00,WNW,286,4.0,-999.0,33,-99.99,,,-99.99,,2013-02-16 10:42:00,
2013-02-16 02:52:00,-999.0,-99.9,-100.00,WNW,286,4.0,-999.0,33,-99.99,,,-99.99,,2013-02-16 10:52:00,
2013-02-16 03:11:00,45.0,19.0,-100.00,North,-999,-999.0,-999.0,35,-99.99,,,-99.99,,2013-02-16 11:11:00,
2013-02-16 03:22:00,-999.0,-99.9,-100.00,West,264,4.0,-999.0,-999,-99.99,,,-99.99,,2013-02-16 11:22:00,
2013-02-16 03:42:00,44.0,21.0,-100.00,North,-999,-999.0,-999.0,39,-99.99,,,-99.99,,2013-02-16 11:42:00,
2013-02-16 03:52:00,44.0,21.0,-100.00,North,-999,-999.0,-999.0,39,-99.99,,,-99.99,,2013-02-16 11:52:00,
2013-02-16 04:02:00,-999.0,-99.9,-100.00,West,264,3.0,-999.0,-999,-99.99,,,-99.99,,2013-02-16 12:02:00,
2013-02-16 04:12:00,-999.0,-99.9,-100.00,West,264,3.0,-999.0,-999,-99.99,,,-99.99,,2013-02-16 12:12:00,
2013-02-16 04:22:00,-999.0,-99.9,-100.00,West,264,3.0,-999.0,-999,-99.99,,,-99.99,,2013-02-16 12:22:00,
2013-02-16 04:42:00,-999.0,-99.9,-100.00,WNW,286,4.0,-999.0,-999,-99.99,,,-99.99,,2013-02-16 12:42:00,
2013-02-16 04:52:00,-999.0,-99.9,-100.00,WNW,286,4.0,-999.0,-999,-99.99,,,-99.99,,2013-02-16 12:52:00,
2013-02-16 05:02:00,-999.0,-99.9,-100.00,WNW,286,4.0,-999.0,-999,-99.99,,,-99.99,,2013-02-16 13:02:00,
2013-02-16 05:11:00,44.0,22.0,-100.00,North,-999,-999.0,-999.0,41,-99.99,,,-99.99,,2013-02-16 13:11:00,
2013-02-16 05:21:00,44.0,22.0,-100.00,North,-999,-999.0,-999.0,41,-99.99,,,-99.99,,2013-02-16 13:21:00,
2013-02-16 05:31:00,44.0,22.0,-100.00,North,-999,-999.0,-999.0,41,-99.99,,,-99.99,,2013-02-16 13:31:00,
2013-02-16 05:41:00,44.0,22.0,-100.00,North,-999,-999.0,-999.0,41,-99.99,,,-99.99,,2013-02-16 13:41:00,
2013-02-16 06:11:00,-999.0,-99.9,-100.00,NW,309,4.0,-999.0,-999,-99.99,,,-99.99,,2013-02-16 14:11:00,
2013-02-16 06:21:00,-999.0,-99.9,-100.00,NW,309,4.0,-999.0,-999,-99.99,,,-99.99,,2013-02-16 14:21:00,
2013-02-16 06:32:00,42.0,22.0,-100.00,North,-999,-999.0,-999.0,45,-99.99,,,-99.99,,2013-02-16 14:32:00,
2013-02-16 06:41:00,41.0,21.0,-100.00,North,-999,-999.0,-999.0,44,-99.99,,,-99.99,,2013-02-16 14:41:00,
2013-02-16 06:52:00,41.0,21.0,-100.00,North,-999,-999.0,-999.0,44,-99.99,,,-99.99,,2013-02-16 14:52:00,
2013-02-16 07:11:00,42.0,20.0,-100.00,North,-999,-999.0,-999.0,41,-99.99,,,-99.99,,2013-02-16 15:11:00,
2013-02-16 07:21:00,42.0,20.0,-100.00,North,-999,-999.0,-999.0,41,-99.99,,,-99.99,,2013-02-16 15:21:00,
2013-02-16 07:31:00,43.0,20.0,-100.00,North,-999,-999.0,-999.0,39,-99.99,,,-99.99,,2013-02-16 15:31:00,
2013-02-16 07:41:00,45.0,20.0,-100.00,North,-999,-999.0,-999.0,36,-99.99,,,-99.99,,2013-02-16 15:41:00,
2013-02-16 07:52:00,48.0,20.0,-100.00,North,-999,-999.0,-999.0,32,-99.99,,,-99.99,,2013-02-16 15:52:00,
2013-02-16 08:01:00,48.0,20.0,-100.00,North,-999,-999.0,-999.0,32,-99.99,,,-99.99,,2013-02-16 16:01:00,
2013-02-16 08:11:00,53.0,22.0,-100.00,North,-999,-999.0,-999.0,29,-99.99,,,-99.99,,2013-02-16 16:11:00,
2013-02-16 08:21:00,53.0,22.0,-100.00,North,-999,-999.0,-999.0,29,-99.99,,,-99.99,,2013-02-16 16:21:00,
2013-02-16 08:42:00,-999.0,-99.9,-100.00,NE,56,1.0,-999.0,-999,-99.99,,,-99.99,,2013-02-16 16:42:00,
2013-02-16 08:52:00,-999.0,-99.9,-100.00,NE,56,1.0,-999.0,-999,-99.99,,,-99.99,,2013-02-16 16:52:00,
2013-02-16 09:11:00,56.0,22.0,-100.00,North,-999,-999.0,-999.0,26,-99.99,,,-99.99,,2013-02-16 17:11:00,
2013-02-16 09:21:00,55.0,21.0,-100.00,North,-999,-999.0,-999.0,26,-99.99,,,-99.99,,2013-02-16 17:21:00,
2013-02-16 09:31:00,55.0,21.0,-100.00,North,-999,-999.0,-999.0,26,-99.99,,,-99.99,,2013-02-16 17:31:00,
2013-02-16 09:41:00,57.0,21.0,-100.00,North,-999,-999.0,-999.0,24,-99.99,,,-99.99,,2013-02-16 17:41:00,
2013-02-16 09:52:00,-999.0,-99.9,-100.00,ESE,118,2.0,-999.0,-999,-99.99,,,-99.99,,2013-02-16 17:52:00,
2013-02-16 10:01:00,59.0,22.0,-100.00,North,-999,-999.0,-999.0,23,-99.99,,,-99.99,,2013-02-16 18:01:00,
2013-02-16 10:42:00,-999.0,-99.9,-100.00,ESE,123,3.0,-999.0,-999,-99.99,,,-99.99,,2013-02-16 18:42:00,
2013-02-16 10:52:00,-999.0,-99.9,-100.00,ESE,123,3.0,-999.0,-999,-99.99,,,-99.99,,2013-02-16 18:52:00,
2013-02-16 11:02:00,61.0,21.0,-100.00,North,-999,-999.0,-999.0,21,-99.99,,,-99.99,,2013-02-16 19:02:00,
2013-02-16 11:11:00,61.0,21.0,-100.00,North,-999,-999.0,-999.0,21,-99.99,,,-99.99,,2013-02-16 19:11:00,
2013-02-16 11:21:00,61.0,21.0,-100.00,North,-999,-999.0,-999.0,21,-99.99,,,-99.99,,2013-02-16 19:21:00,
2013-02-16 11:32:00,-999.0,-99.9,-100.00,ENE,67,3.0,-999.0,-999,-99.99,,,-99.99,,2013-02-16 19:32:00,
2013-02-16 11:42:00,61.0,21.0,-100.00,North,-999,-999.0,-999.0,20,-99.99,,,-99.99,,2013-02-16 19:42:00,
2013-02-16 11:52:00,61.0,21.0,-100.00,North,-999,-999.0,-999.0,20,-99.99,,,-99.99,,2013-02-16 19:52:00,
2013-02-16 12:01:00,61.0,21.0,-100.00,North,-999,-999.0,-999.0,20,-99.99,,,-99.99,,2013-02-16 20:01:00,
2013-02-16 12:11:00,-999.0,-99.9,-100.00,SE,135,4.0,-999.0,-999,-99.99,,,-99.99,,2013-02-16 20:11:00,
2013-02-16 12:22:00,-999.0,-99.9,-100.00,SE,135,4.0,-999.0,-999,-99.99,,,-99.99,,2013-02-16 20:22:00,
2013-02-16 12:32:00,62.0,-99.9,-100.00,North,-999,-999.0,-999.0,-999,-99.99,,,-99.99,,2013-02-16 20:32:00,
2013-02-16 12:42:00,64.0,21.0,-100.00,North,-999,-999.0,-999.0,18,-99.99,,,-99.99,,2013-02-16 20:42:00,
2013-02-16 12:52:00,64.0,21.0,-100.00,North,-999,-999.0,-999.0,18,-99.99,,,-99.99,,2013-02-16 20:52:00,
2013-02-16 13:02:00,-999.0,-99.9,-100.00,SE,135,3.0,-999.0,-999,-99.99,,,-99.99,,2013-02-16 21:02:00,
2013-02-16 13:11:00,-999.0,-99.9,-100.00,SE,135,3.0,-999.0,-999,-99.99,,,-99.99,,2013-02-16 21:11:00,
2013-02-16 13:22:00,-999.0,-99.9,-100.00,SE,135,3.0,-999.0,-999,-99.99,,,-99.99,,2013-02-16 21:22:00,
2013-02-16 13:31:00,63.0,20.0,-100.00,North,-999,-999.0,-999.0,18,-99.99,,,-99.99,,2013-02-16 21:31:00,
2013-02-16 13:42:00,63.0,20.0,-100.00,North,-999,-999.0,-999.0,18,-99.99,,,0.00,,2013-02-16 21:42:00,
2013-02-16 13:52:00,63.0,20.0,-100.00,North,-999,-999.0,-999.0,18,-99.99,,,0.00,,2013-02-16 21:52:00,
2013-02-16 14:02:00,-999.0,-99.9,-100.00,NNE,28,3.0,-999.0,-999,-99.99,,,-99.99,,2013-02-16 22:02:00,
2013-02-16 14:11:00,-999.0,-99.9,-100.00,NNE,28,3.0,-999.0,-999,-99.99,,,-99.99,,2013-02-16 22:11:00,
2013-02-16 14:22:00,-999.0,-99.9,-100.00,NNE,28,3.0,-999.0,-999,-99.99,,,-99.99,,2013-02-16 22:22:00,
2013-02-16 14:31:00,65.0,20.0,-100.00,North,-999,-999.0,-999.0,17,-99.99,,,-99.99,,2013-02-16 22:31:00,
2013-02-16 15:02:00,-999.0,-99.9,-100.00,ESE,106,3.0,-999.0,17,-99.99,,,-99.99,,2013-02-16 23:02:00,
2013-02-16 15:31:00,66.0,19.0,-100.00,North,-999,-999.0,-999.0,16,-99.99,,,-99.99,,2013-02-16 23:31:00,
2013-02-16 15:42:00,64.0,19.0,-100.00,North,-999,-999.0,-999.0,17,-99.99,,,-99.99,,2013-02-16 23:42:00,
2013-02-16 15:52:00,-999.0,-99.9,-100.00,SE,146,3.0,-999.0,-999,-99.99,,,-99.99,,2013-02-16 23:52:00,
2013-02-16 16:00:00,64.0,-99.9,-100.00,North,-999,-999.0,-999.0,-999,-99.99,,,-99.99,,2013-02-17 00:00:00,
2013-02-16 16:11:00,65.0,18.0,-100.00,North,-999,-999.0,-999.0,16,-99.99,,,-99.99,,2013-02-17 00:11:00,
2013-02-16 16:21:00,65.0,18.0,-100.00,North,-999,-999.0,-999.0,16,-99.99,,,-99.99,,2013-02-17 00:21:00,
2013-02-16 16:32:00,64.0,-99.9,-100.00,North,-999,-999.0,-999.0,-999,-99.99,,,-99.99,,2013-02-17 00:32:00,
2013-02-16 16:42:00,64.0,-99.9,-100.00,North,-999,-999.0,-999.0,-999,-99.99,,,-99.99,,2013-02-17 00:42:00,
2013-02-16 16:52:00,64.0,-99.9,-100.00,North,-999,-999.0,-999.0,-999,-99.99,,,-99.99,,2013-02-17 00:52:00,
2013-02-16 17:31:00,61.0,18.0,-100.00,North,-999,-999.0,-999.0,18,-99.99,,,-99.99,,2013-02-17 01:31:00,
2013-02-16 17:41:00,61.0,18.0,-100.00,North,-999,-999.0,-999.0,18,-99.99,,,-99.99,,2013-02-17 01:41:00,
2013-02-16 17:52:00,61.0,18.0,-100.00,North,-999,-999.0,-999.0,18,-99.99,,,-99.99,,2013-02-17 01:52:00,
2013-02-16 18:01:00,-999.0,-99.9,-100.00,ESE,118,1.0,-999.0,-999,-99.99,,,-99.99,,2013-02-17 02:01:00,
2013-02-16 18:11:00,57.0,20.0,-100.00,North,-999,-999.0,-999.0,23,-99.99,,,-99.99,,2013-02-17 02:11:00,
2013-02-16 18:21:00,57.0,20.0,-100.00,North,-999,-999.0,-999.0,23,-99.99,,,-99.99,,2013-02-17 02:21:00,
2013-02-16 18:31:00,56.0,22.0,-100.00,North,-999,-999.0,-999.0,26,-99.99,,,-99.99,,2013-02-17 02:31:00,
2013-02-16 18:41:00,55.0,23.0,-100.00,North,-999,-999.0,-999.0,28,-99.99,,,-99.99,,2013-02-17 02:41:00,
2013-02-16 18:52:00,55.0,23.0,-100.00,North,-999,-999.0,-999.0,28,-99.99,,,-99.99,,2013-02-17 02:52:00,
2013-02-16 19:11:00,54.0,23.0,-100.00,North,-999,-999.0,-999.0,29,-99.99,,,-99.99,,2013-02-17 03:11:00,
2013-02-16 19:21:00,-999.0,-99.9,-100.00,WNW,292,2.0,-999.0,-999,-99.99,,,-99.99,,2013-02-17 03:21:00,
2013-02-16 19:32:00,-999.0,-99.9,-100.00,WNW,292,2.0,-999.0,-999,-99.99,,,-99.99,,2013-02-17 03:32:00,
2013-02-16 19:41:00,53.0,23.0,-100.00,North,-999,-999.0,-999.0,31,-99.99,,,-99.99,,2013-02-17 03:41:00,
2013-02-16 19:51:00,53.0,23.0,-100.00,North,-999,-999.0,-999.0,31,-99.99,,,-99.99,,2013-02-17 03:51:00,
2013-02-16 20:01:00,53.0,23.0,-100.00,North,-999,-999.0,-999.0,31,-99.99,,,-99.99,,2013-02-17 04:01:00,
2013-02-16 20:11:00,53.0,23.0,-100.00,North,-999,-999.0,-999.0,31,-99.99,,,-99.99,,2013-02-17 04:11:00,
2013-02-16 20:22:00,-999.0,-99.9,-100.00,WNW,292,2.0,-999.0,-999,-99.99,,,-99.99,,2013-02-17 04:22:00,
2013-02-16 20:31:00,52.0,23.0,-100.00,North,-999,-999.0,-999.0,32,-99.99,,,-99.99,,2013-02-17 04:31:00,
2013-02-16 20:41:00,52.0,23.0,-100.00,North,-999,-999.0,-999.0,32,-99.99,,,-99.99,,2013-02-17 04:41:00,
2013-02-16 20:51:00,52.0,23.0,-100.00,North,-999,-999.0,-999.0,32,-99.99,,,-99.99,,2013-02-17 04:51:00,
2013-02-16 21:12:00,-999.0,-99.9,-100.00,West,275,3.0,-999.0,-999,-99.99,,,-99.99,,2013-02-17 05:12:00,
2013-02-16 21:22:00,-999.0,-99.9,-100.00,West,275,3.0,-999.0,-999,-99.99,,,-99.99,,2013-02-17 05:22:00,
2013-02-16 21:32:00,51.0,21.0,-100.00,North,-999,-999.0,-999.0,30,-99.99,,,-99.99,,2013-02-17 05:32:00,
2013-02-16 21:42:00,50.0,21.0,-100.00,North,-999,-999.0,-999.0,31,-99.99,,,-99.99,,2013-02-17 05:42:00,
2013-02-16 21:52:00,50.0,21.0,-100.00,North,-999,-999.0,-999.0,31,-99.99,,,-99.99,,2013-02-17 05:52:00,
2013-02-16 22:02:00,-999.0,-99.9,-100.00,WNW,286,3.0,-999.0,30,-99.99,,,-99.99,,2013-02-17 06:02:00,
2013-02-16 22:11:00,-999.0,-99.9,-100.00,WNW,286,3.0,-999.0,30,-99.99,,,-99.99,,2013-02-17 06:11:00,
2013-02-16 22:22:00,-999.0,-99.9,-100.00,WNW,286,3.0,-999.0,30,-99.99,,,-99.99,,2013-02-17 06:22:00,
2013-02-16 22:31:00,49.0,20.0,-100.00,North,-999,-999.0,-999.0,31,-99.99,,,-99.99,,2013-02-17 06:31:00,
2013-02-16 22:42:00,49.0,20.0,-100.00,North,-999,-999.0,-999.0,31,-99.99,,,-99.99,,2013-02-17 06:42:00,
2013-02-16 22:52:00,49.0,20.0,-100.00,North,-999,-999.0,-999.0,31,-99.99,,,-99.99,,2013-02-17 06:52:00,
2013-02-16 23:02:00,-999.0,-99.9,-100.00,WNW,298,2.0,-999.0,-999,-99.99,,,-99.99,,2013-02-17 07:02:00,
2013-02-16 23:11:00,48.0,-99.9,-100.00,North,-999,-999.0,-999.0,-999,-99.99,,,-99.99,,2013-02-17 07:11:00,
2013-02-16 23:22:00,48.0,-99.9,-100.00,North,-999,-999.0,-999.0,-999,-99.99,,,-99.99,,2013-02-17 07:22:00,